Tracking 30922 objects as of 2-Jul-2025
HD Live streaming from Space Station
objects crossing your sky now

SL-14 DEB

Track SL-14 DEB now!
10-day predictions


NORAD ID: 45286
Int'l Code: 1991-056Y
Perigee: 1,190.5 km
Apogee: 1,226.9 km
Inclination: 82.6 °
Period: 109.5 minutes
Semi major axis: 7579 km
RCS: Unknown
Launch date: August 15, 1991
Source: Commonwealth of Independent States (former USSR) (CIS)
Launch site: PLESETSK MISSILE AND SPACE COMPLEX (PKMTR)

Note: This is SATELLITE DEBRIS
Your satellite tracking list
TET-1
Track 1 satellite(s)




NASA's NSSDC Master Catalog

Two Line Element Set (TLE):
1 45286U 91056Y   25182.64094469 -.00000032  00000-0 -11687-3 0  9999
2 45286  82.6280  45.6296 0024018 333.1800  26.8078 13.15592342257693
Source of the keplerian elements: AFSPC